Location: Boiro
(42.6475°N, 8.8834°W)
Time: 13:36:31
(UTC+01:00)

Altair - Pass Details

Date: 08 December 2021
Orbit: 1501 x 1683 km, 47.2° (Epoch: 21 January)

Event Time Altitude Azimuth Distance (km) Brightness Sun altitude
Rises 22:52:58 0° 295° (WNW) 4,668 10.6 -52.4°
Reaches altitude 10° 22:56:16 10° 288° (WNW) 3,670 9.9 -52.9°
Enters shadow 22:59:54 24° 272° (W) 2,717 9.0 -53.6°
